Time,TemperatureF,DewpointF,PressureIn,WindDirection,WindDirectionDegrees,WindSpeedMPH,WindSpeedGustMPH,Humidity,HourlyPrecipIn,Conditions,Clouds,dailyrainin,SoftwareType,DateUTC
2013-01-20 00:00:00,36.8,31.8,30.23,ESE,118,0.0,2.0,82,0.00,,---,0.00,VWS V14.01,2013-01-20 06:00:00,
2013-01-20 00:05:00,36.7,31.7,30.23,ESE,119,0.0,0.0,82,0.00,,---,0.00,VWS V14.01,2013-01-20 06:05:00,
2013-01-20 00:10:00,36.5,31.8,30.23,ESE,119,0.0,0.0,83,0.00,,---,0.00,VWS V14.01,2013-01-20 06:10:00,
2013-01-20 00:15:00,36.5,31.8,30.23,ESE,118,0.0,0.0,83,0.00,,---,0.00,VWS V14.01,2013-01-20 06:15:00,
2013-01-20 00:20:00,37.0,32.6,30.23,ESE,118,1.0,1.0,84,0.00,,---,0.00,VWS V14.01,2013-01-20 06:20:00,
2013-01-20 00:25:00,37.6,32.6,30.23,ESE,117,1.0,1.0,82,0.00,,---,0.00,VWS V14.01,2013-01-20 06:25:00,
2013-01-20 00:30:00,38.0,32.4,30.23,ESE,117,1.0,2.0,80,0.00,,---,0.00,VWS V14.01,2013-01-20 06:30:00,
2013-01-20 00:35:00,37.9,32.0,30.23,SSE,163,1.0,1.0,79,0.00,,---,0.00,VWS V14.01,2013-01-20 06:35:00,
2013-01-20 00:40:00,36.5,30.6,30.23,South,173,2.0,2.0,79,0.00,,---,0.00,VWS V14.01,2013-01-20 06:40:00,
2013-01-20 00:46:00,35.2,30.3,30.23,SSE,158,2.0,2.0,82,0.00,,---,0.00,VWS V14.01,2013-01-20 06:46:00,
2013-01-20 00:51:00,35.0,31.0,30.23,SSW,204,2.0,2.0,85,0.00,,---,0.00,VWS V14.01,2013-01-20 06:51:00,
2013-01-20 00:56:00,35.5,31.5,30.23,SW,220,0.0,2.0,85,0.00,,---,0.00,VWS V14.01,2013-01-20 06:56:00,
2013-01-20 01:01:00,35.3,31.2,30.23,SSW,211,1.0,1.0,85,0.00,,---,0.00,VWS V14.01,2013-01-20 07:01:00,
2013-01-20 01:06:00,34.8,30.5,30.23,South,190,2.0,3.0,84,0.00,,---,0.00,VWS V14.01,2013-01-20 07:06:00,
2013-01-20 01:11:00,34.1,30.4,30.23,SW,222,1.0,3.0,86,0.00,,---,0.00,VWS V14.01,2013-01-20 07:11:00,
2013-01-20 01:17:00,33.6,30.1,30.23,SW,222,0.0,3.0,87,0.00,,---,0.00,VWS V14.01,2013-01-20 07:17:00,
2013-01-20 01:22:00,32.8,28.5,30.23,NNW,330,1.0,3.0,84,0.00,,---,0.00,VWS V14.01,2013-01-20 07:22:00,
2013-01-20 01:27:00,32.2,29.0,30.23,NW,304,0.0,3.0,88,0.00,,---,0.00,VWS V14.01,2013-01-20 07:27:00,
2013-01-20 01:32:00,32.5,29.6,30.23,WNW,292,1.0,1.0,89,0.00,,---,0.00,VWS V14.01,2013-01-20 07:32:00,
2013-01-20 01:37:00,33.0,30.1,30.23,West,271,1.0,3.0,89,0.00,,---,0.00,VWS V14.01,2013-01-20 07:37:00,
2013-01-20 01:42:00,33.3,29.9,30.23,SSW,207,0.0,3.0,87,0.00,,---,0.00,VWS V14.01,2013-01-20 07:42:00,
2013-01-20 01:47:00,33.2,29.8,30.23,SSW,207,1.0,3.0,87,0.00,,---,0.00,VWS V14.01,2013-01-20 07:47:00,
2013-01-20 01:52:00,33.0,29.6,30.23,SSW,207,0.0,3.0,87,0.00,,---,0.00,VWS V14.01,2013-01-20 07:52:00,
2013-01-20 01:57:00,32.9,29.7,30.23,SSW,208,0.0,3.0,88,0.00,,---,0.00,VWS V14.01,2013-01-20 07:57:00,
2013-01-20 02:03:00,32.9,29.7,30.23,SSW,208,0.0,0.0,88,0.00,,---,0.00,VWS V14.01,2013-01-20 08:03:00,
2013-01-20 02:08:00,32.9,29.5,30.23,SW,224,2.0,2.0,87,0.00,,---,0.00,VWS V14.01,2013-01-20 08:08:00,
2013-01-20 02:13:00,32.7,29.5,30.23,West,267,0.0,2.0,88,0.00,,---,0.00,VWS V14.01,2013-01-20 08:13:00,
2013-01-20 02:18:00,32.6,29.5,30.24,West,267,0.0,2.0,88,0.00,,---,0.00,VWS V14.01,2013-01-20 08:18:00,
2013-01-20 02:23:00,32.5,29.4,30.23,West,267,1.0,2.0,88,0.00,,---,0.00,VWS V14.01,2013-01-20 08:23:00,
2013-01-20 02:28:00,32.5,29.4,30.23,WSW,241,2.0,3.0,88,0.00,,---,0.00,VWS V14.01,2013-01-20 08:28:00,
2013-01-20 02:33:00,32.4,29.2,30.23,WSW,255,1.0,1.0,88,0.00,,---,0.00,VWS V14.01,2013-01-20 08:33:00,
2013-01-20 02:38:00,32.3,29.1,30.24,West,272,2.0,2.0,88,0.00,,---,0.00,VWS V14.01,2013-01-20 08:38:00,
2013-01-20 02:44:00,32.2,29.0,30.23,WNW,291,2.0,3.0,88,0.00,,---,0.00,VWS V14.01,2013-01-20 08:44:00,
2013-01-20 02:49:00,31.9,28.8,30.23,WNW,293,2.0,3.0,88,0.00,,---,0.00,VWS V14.01,2013-01-20 08:49:00,
2013-01-20 02:54:00,31.3,28.2,30.24,NW,307,2.0,3.0,88,0.00,,---,0.00,VWS V14.01,2013-01-20 08:54:00,
2013-01-20 02:59:00,30.8,27.7,30.24,NW,310,2.0,3.0,88,0.00,,---,0.00,VWS V14.01,2013-01-20 08:59:00,
2013-01-20 03:04:00,30.9,28.0,30.24,WNW,302,3.0,3.0,89,0.00,,---,0.00,VWS V14.01,2013-01-20 09:04:00,
2013-01-20 03:09:00,31.7,28.8,30.24,WNW,287,0.0,3.0,89,0.00,,---,0.00,VWS V14.01,2013-01-20 09:09:00,
2013-01-20 03:14:00,32.3,28.9,30.23,West,266,1.0,3.0,87,0.00,,---,0.00,VWS V14.01,2013-01-20 09:14:00,
2013-01-20 03:19:00,32.5,28.8,30.23,West,267,1.0,3.0,86,0.00,,---,0.00,VWS V14.01,2013-01-20 09:19:00,
2013-01-20 03:24:00,32.7,28.7,30.23,West,267,0.0,3.0,85,0.00,,---,0.00,VWS V14.01,2013-01-20 09:24:00,
2013-01-20 03:29:00,32.2,27.9,30.23,SW,217,1.0,3.0,84,0.00,,---,0.00,VWS V14.01,2013-01-20 09:29:00,
2013-01-20 03:34:00,31.8,28.4,30.23,SW,234,1.0,2.0,87,0.00,,---,0.00,VWS V14.01,2013-01-20 09:34:00,
2013-01-20 03:40:00,31.9,28.2,30.23,West,272,2.0,3.0,86,0.00,,---,0.00,VWS V14.01,2013-01-20 09:40:00,
2013-01-20 03:45:00,31.9,28.2,30.23,West,269,2.0,3.0,86,0.00,,---,0.00,VWS V14.01,2013-01-20 09:45:00,
2013-01-20 03:50:00,32.1,28.4,30.23,West,274,1.0,3.0,86,0.00,,---,0.00,VWS V14.01,2013-01-20 09:50:00,
2013-01-20 03:55:00,32.0,28.0,30.23,West,274,1.0,3.0,85,0.00,,---,0.00,VWS V14.01,2013-01-20 09:55:00,
2013-01-20 04:00:00,31.7,27.7,30.23,WNW,298,1.0,3.0,85,0.00,,---,0.00,VWS V14.01,2013-01-20 10:00:00,
2013-01-20 04:05:00,31.4,27.7,30.23,WNW,298,0.0,1.0,86,0.00,,---,0.00,VWS V14.01,2013-01-20 10:05:00,
2013-01-20 04:10:00,31.4,27.7,30.23,WNW,298,0.0,1.0,86,0.00,,---,0.00,VWS V14.01,2013-01-20 10:10:00,
2013-01-20 04:15:00,31.2,27.2,30.23,WNW,298,0.0,1.0,85,0.00,,---,0.00,VWS V14.01,2013-01-20 10:15:00,
2013-01-20 04:20:00,30.9,27.2,30.23,WNW,298,0.0,1.0,86,0.00,,---,0.00,VWS V14.01,2013-01-20 10:20:00,
2013-01-20 04:25:00,30.7,27.0,30.23,WNW,297,0.0,1.0,86,0.00,,---,0.00,VWS V14.01,2013-01-20 10:25:00,
2013-01-20 04:30:00,30.4,27.0,30.23,WNW,298,0.0,1.0,87,0.00,,---,0.00,VWS V14.01,2013-01-20 10:30:00,
2013-01-20 04:35:00,30.8,27.7,30.23,WNW,298,1.0,1.0,88,0.00,,---,0.00,VWS V14.01,2013-01-20 10:35:00,
2013-01-20 04:41:00,31.3,27.6,30.23,WNW,298,1.0,2.0,86,0.00,,---,0.00,VWS V14.01,2013-01-20 10:41:00,
2013-01-20 04:46:00,31.3,27.6,30.23,WNW,298,2.0,2.0,86,0.00,,---,0.00,VWS V14.01,2013-01-20 10:46:00,
2013-01-20 04:51:00,30.8,26.8,30.22,WNW,298,2.0,2.0,85,0.00,,---,0.00,VWS V14.01,2013-01-20 10:51:00,
2013-01-20 04:56:00,30.5,26.8,30.22,WNW,303,2.0,3.0,86,0.00,,---,0.00,VWS V14.01,2013-01-20 10:56:00,
2013-01-20 05:01:00,30.7,27.0,30.23,NW,304,2.0,2.0,86,0.00,,---,0.00,VWS V14.01,2013-01-20 11:01:00,
2013-01-20 05:06:00,31.0,27.3,30.23,WNW,303,1.0,2.0,86,0.00,,---,0.00,VWS V14.01,2013-01-20 11:06:00,
2013-01-20 05:11:00,31.1,27.1,30.23,NW,304,0.0,2.0,85,0.00,,---,0.00,VWS V14.01,2013-01-20 11:11:00,
2013-01-20 05:16:00,30.8,26.5,30.23,WNW,303,0.0,2.0,84,0.00,,---,0.00,VWS V14.01,2013-01-20 11:16:00,
2013-01-20 05:21:00,30.2,26.2,30.23,WNW,303,0.0,2.0,85,0.00,,---,0.00,VWS V14.01,2013-01-20 11:21:00,
2013-01-20 05:26:00,29.9,26.2,30.23,WNW,302,0.0,2.0,86,0.00,,---,0.00,VWS V14.01,2013-01-20 11:26:00,
2013-01-20 05:31:00,29.6,25.9,30.23,WNW,302,0.0,0.0,86,0.00,,---,0.00,VWS V14.01,2013-01-20 11:31:00,
2013-01-20 05:37:00,29.6,26.2,30.23,WNW,302,0.0,0.0,87,0.00,,---,0.00,VWS V14.01,2013-01-20 11:37:00,
2013-01-20 05:42:00,29.6,26.2,30.22,WNW,302,0.0,1.0,87,0.00,,---,0.00,VWS V14.01,2013-01-20 11:42:00,
2013-01-20 05:47:00,30.0,26.6,30.22,WNW,301,0.0,1.0,87,0.00,,---,0.00,VWS V14.01,2013-01-20 11:47:00,
2013-01-20 05:52:00,30.4,26.7,30.22,WNW,301,1.0,1.0,86,0.00,,---,0.00,VWS V14.01,2013-01-20 11:52:00,
2013-01-20 05:57:00,30.3,26.6,30.22,WNW,297,1.0,2.0,86,0.00,,---,0.00,VWS V14.01,2013-01-20 11:57:00,
2013-01-20 06:02:00,30.2,26.5,30.22,WNW,297,1.0,1.0,86,0.00,,---,0.00,VWS V14.01,2013-01-20 12:02:00,
2013-01-20 06:07:00,30.0,26.3,30.22,NW,320,2.0,3.0,86,0.00,,---,0.00,VWS V14.01,2013-01-20 12:07:00,
2013-01-20 06:13:00,29.8,26.1,30.22,NW,319,1.0,3.0,86,0.00,,---,0.00,VWS V14.01,2013-01-20 12:13:00,
2013-01-20 06:18:00,29.7,26.0,30.22,NW,319,1.0,3.0,86,0.00,,---,0.00,VWS V14.01,2013-01-20 12:18:00,
2013-01-20 06:23:00,29.5,25.8,30.22,NW,319,2.0,3.0,86,0.00,,---,0.00,VWS V14.01,2013-01-20 12:23:00,
2013-01-20 06:28:00,28.9,25.2,30.22,NW,311,1.0,3.0,86,0.00,,---,0.00,VWS V14.01,2013-01-20 12:28:00,
2013-01-20 06:33:00,28.5,25.1,30.22,NW,310,0.0,1.0,87,0.00,,---,0.00,VWS V14.01,2013-01-20 12:33:00,
2013-01-20 06:38:00,28.2,24.8,30.22,NW,311,0.0,1.0,87,0.00,,---,0.00,VWS V14.01,2013-01-20 12:38:00,
2013-01-20 06:43:00,28.0,24.9,30.22,NW,310,0.0,1.0,88,0.00,,---,0.00,VWS V14.01,2013-01-20 12:43:00,
2013-01-20 06:49:00,27.6,24.2,30.22,SE,145,1.0,2.0,87,0.00,,---,0.00,VWS V14.01,2013-01-20 12:49:00,
2013-01-20 06:54:00,27.1,24.0,30.22,SSE,156,1.0,2.0,88,0.00,,---,0.00,VWS V14.01,2013-01-20 12:54:00,
2013-01-20 06:59:00,27.3,24.5,30.22,SW,215,0.0,2.0,89,0.00,,---,0.00,VWS V14.01,2013-01-20 12:59:00,
2013-01-20 07:04:00,27.2,24.4,30.23,SW,215,0.0,0.0,89,0.00,,---,0.00,VWS V14.01,2013-01-20 13:04:00,
2013-01-20 07:09:00,27.4,24.9,30.23,SW,215,1.0,1.0,90,0.00,,---,0.00,VWS V14.01,2013-01-20 13:09:00,
2013-01-20 07:14:00,27.6,24.8,30.23,SW,215,1.0,1.0,89,0.00,,---,0.00,VWS V14.01,2013-01-20 13:14:00,
2013-01-20 07:20:00,28.2,25.4,30.23,WSW,246,1.0,2.0,89,0.00,,---,0.00,VWS V14.01,2013-01-20 13:20:00,
2013-01-20 07:25:00,28.6,25.5,30.23,West,263,1.0,2.0,88,0.00,,---,0.00,VWS V14.01,2013-01-20 13:25:00,
2013-01-20 07:30:00,28.9,25.5,30.23,West,274,1.0,2.0,87,0.00,,---,0.00,VWS V14.01,2013-01-20 13:30:00,
2013-01-20 07:35:00,28.9,25.2,30.23,West,274,0.0,0.0,86,0.00,,---,0.00,VWS V14.01,2013-01-20 13:35:00,
2013-01-20 07:40:00,29.0,25.4,30.22,West,274,0.0,1.0,86,0.00,,---,0.00,VWS V14.01,2013-01-20 13:40:00,
2013-01-20 07:45:00,29.0,25.4,30.23,West,274,0.0,1.0,86,0.00,,---,0.00,VWS V14.01,2013-01-20 13:45:00,
2013-01-20 07:51:00,29.0,25.4,30.23,West,274,1.0,1.0,86,0.00,,---,0.00,VWS V14.01,2013-01-20 13:51:00,
2013-01-20 07:56:00,28.8,25.1,30.23,West,274,1.0,1.0,86,0.00,,---,0.00,VWS V14.01,2013-01-20 13:56:00,
2013-01-20 08:01:00,28.9,25.2,30.23,SW,221,1.0,1.0,86,0.00,,---,0.00,VWS V14.01,2013-01-20 14:01:00,
2013-01-20 08:06:00,29.0,25.1,30.23,SW,232,1.0,2.0,85,0.00,,---,0.00,VWS V14.01,2013-01-20 14:06:00,
2013-01-20 08:11:00,29.0,25.1,30.23,WSW,249,1.0,2.0,85,0.00,,---,0.00,VWS V14.01,2013-01-20 14:11:00,
2013-01-20 08:16:00,29.3,25.4,30.23,West,281,2.0,3.0,85,0.00,,---,0.00,VWS V14.01,2013-01-20 14:16:00,
2013-01-20 08:21:00,29.4,25.5,30.23,West,267,0.0,3.0,85,0.00,,---,0.00,VWS V14.01,2013-01-20 14:21:00,
2013-01-20 08:26:00,29.6,25.4,30.23,West,266,1.0,3.0,84,0.00,,---,0.00,VWS V14.01,2013-01-20 14:26:00,
2013-01-20 08:31:00,29.8,25.6,30.23,West,262,1.0,1.0,84,0.00,,---,0.00,VWS V14.01,2013-01-20 14:31:00,
2013-01-20 08:36:00,30.2,26.2,30.23,West,266,2.0,2.0,85,0.00,,---,0.00,VWS V14.01,2013-01-20 14:36:00,
2013-01-20 08:41:00,30.7,26.5,30.23,WSW,248,1.0,2.0,84,0.00,,---,0.00,VWS V14.01,2013-01-20 14:41:00,
2013-01-20 08:47:00,31.5,27.5,30.23,WSW,246,1.0,2.0,85,0.00,,---,0.00,VWS V14.01,2013-01-20 14:47:00,
2013-01-20 08:52:00,32.1,27.5,30.23,WSW,257,2.0,3.0,83,0.00,,---,0.00,VWS V14.01,2013-01-20 14:52:00,
2013-01-20 08:57:00,32.6,28.0,30.23,West,270,2.0,3.0,83,0.00,,---,0.00,VWS V14.01,2013-01-20 14:57:00,
2013-01-20 09:02:00,33.1,28.2,30.23,West,267,2.0,2.0,82,0.00,,---,0.00,VWS V14.01,2013-01-20 15:02:00,
2013-01-20 09:07:00,33.7,28.8,30.23,West,267,1.0,3.0,82,0.00,,---,0.00,VWS V14.01,2013-01-20 15:07:00,
2013-01-20 09:12:00,34.2,29.0,30.23,West,259,1.0,3.0,81,0.00,,---,0.00,VWS V14.01,2013-01-20 15:12:00,
2013-01-20 09:17:00,35.1,29.6,30.23,West,261,0.0,3.0,80,0.00,,---,0.00,VWS V14.01,2013-01-20 15:17:00,
2013-01-20 09:23:00,36.7,31.1,30.23,SSW,207,0.0,3.0,80,0.00,,---,0.00,VWS V14.01,2013-01-20 15:23:00,
2013-01-20 09:28:00,38.2,32.0,30.23,SW,224,0.0,3.0,78,0.00,,---,0.00,VWS V14.01,2013-01-20 15:28:00,
2013-01-20 09:33:00,39.6,32.7,30.23,SSE,159,1.0,1.0,76,0.00,,---,0.00,VWS V14.01,2013-01-20 15:33:00,
2013-01-20 09:38:00,40.3,32.7,30.23,SW,221,1.0,2.0,74,0.00,,---,0.00,VWS V14.01,2013-01-20 15:38:00,
2013-01-20 09:43:00,40.7,33.1,30.23,South,187,0.0,2.0,74,0.00,,---,0.00,VWS V14.01,2013-01-20 15:43:00,
2013-01-20 09:48:00,41.5,33.2,30.23,West,259,1.0,2.0,72,0.00,,---,0.00,VWS V14.01,2013-01-20 15:48:00,
2013-01-20 09:53:00,41.5,32.5,30.23,NW,309,1.0,4.0,70,0.00,,---,0.00,VWS V14.01,2013-01-20 15:53:00,
2013-01-20 09:58:00,41.6,32.9,30.23,WNW,293,2.0,4.0,71,0.00,,---,0.00,VWS V14.01,2013-01-20 15:58:00,
2013-01-20 10:04:00,41.7,32.7,30.22,WSW,250,2.0,4.0,70,0.00,,---,0.00,VWS V14.01,2013-01-20 16:04:00,
2013-01-20 10:09:00,42.1,33.0,30.23,WNW,285,3.0,5.0,70,0.00,,---,0.00,VWS V14.01,2013-01-20 16:09:00,
2013-01-20 10:14:00,42.6,33.2,30.23,West,264,2.0,5.0,69,0.00,,---,0.00,VWS V14.01,2013-01-20 16:14:00,
2013-01-20 10:19:00,43.3,33.8,30.23,WNW,294,3.0,5.0,69,0.00,,---,0.00,VWS V14.01,2013-01-20 16:19:00,
2013-01-20 10:24:00,43.9,34.0,30.23,West,267,2.0,5.0,68,0.00,,---,0.00,VWS V14.01,2013-01-20 16:24:00,
2013-01-20 10:29:00,44.6,34.0,30.22,WSW,255,0.0,5.0,66,0.00,,---,0.00,VWS V14.01,2013-01-20 16:29:00,
2013-01-20 10:34:00,45.7,35.0,30.23,WSW,257,1.0,2.0,66,0.00,,---,0.00,VWS V14.01,2013-01-20 16:34:00,
2013-01-20 10:39:00,46.5,34.6,30.23,WNW,291,2.0,3.0,63,0.00,,---,0.00,VWS V14.01,2013-01-20 16:39:00,
2013-01-20 10:45:00,47.2,35.3,30.23,West,276,1.0,4.0,63,0.00,,---,0.00,VWS V14.01,2013-01-20 16:45:00,
2013-01-20 10:50:00,48.0,34.4,30.23,WSW,257,0.0,4.0,59,0.00,,---,0.00,VWS V14.01,2013-01-20 16:50:00,
2013-01-20 10:55:00,48.9,34.8,30.23,SW,215,1.0,4.0,58,0.00,,---,0.00,VWS V14.01,2013-01-20 16:55:00,
2013-01-20 11:00:00,50.1,35.0,30.23,WSW,241,3.0,4.0,56,0.00,,---,0.00,VWS V14.01,2013-01-20 17:00:00,
2013-01-20 11:05:00,50.6,35.0,30.23,SW,214,4.0,5.0,55,0.00,,---,0.00,VWS V14.01,2013-01-20 17:05:00,
2013-01-20 11:10:00,51.3,35.2,30.23,SSE,167,4.0,5.0,54,0.00,,---,0.00,VWS V14.01,2013-01-20 17:10:00,
2013-01-20 11:15:00,52.1,35.0,30.23,South,174,2.0,7.0,52,0.00,,---,0.00,VWS V14.01,2013-01-20 17:15:00,
2013-01-20 11:20:00,52.8,35.7,30.22,South,176,6.0,7.0,52,0.00,,---,0.00,VWS V14.01,2013-01-20 17:20:00,
2013-01-20 11:25:00,53.1,35.5,30.22,SSW,204,2.0,7.0,51,0.00,,---,0.00,VWS V14.01,2013-01-20 17:25:00,
2013-01-20 11:31:00,53.6,35.9,30.22,SSE,152,5.0,7.0,51,0.00,,---,0.00,VWS V14.01,2013-01-20 17:31:00,
2013-01-20 11:36:00,54.1,35.9,30.22,SE,142,4.0,7.0,50,0.00,,---,0.00,VWS V14.01,2013-01-20 17:36:00,
2013-01-20 11:41:00,54.5,35.8,30.21,SSE,167,5.0,7.0,49,0.00,,---,0.00,VWS V14.01,2013-01-20 17:41:00,
2013-01-20 11:46:00,55.0,36.7,30.21,SSE,149,6.0,7.0,50,0.00,,---,0.00,VWS V14.01,2013-01-20 17:46:00,
2013-01-20 11:51:00,55.6,36.2,30.21,ESE,120,2.0,7.0,48,0.00,,---,0.00,VWS V14.01,2013-01-20 17:51:00,
2013-01-20 11:56:00,55.9,36.0,30.20,SE,135,4.0,7.0,47,0.00,,---,0.00,VWS V14.01,2013-01-20 17:56:00,
2013-01-20 12:01:00,55.9,36.0,30.20,South,188,3.0,4.0,47,0.00,,---,0.00,VWS V14.01,2013-01-20 18:01:00,
2013-01-20 12:06:00,56.3,36.3,30.20,West,280,3.0,7.0,47,0.00,,---,0.00,VWS V14.01,2013-01-20 18:06:00,
2013-01-20 12:12:00,56.8,36.8,30.19,South,190,5.0,7.0,47,0.00,,---,0.00,VWS V14.01,2013-01-20 18:12:00,
2013-01-20 12:17:00,56.7,36.2,30.19,SW,217,1.0,8.0,46,0.00,,---,0.00,VWS V14.01,2013-01-20 18:17:00,
2013-01-20 12:22:00,56.9,36.3,30.18,SW,215,4.0,8.0,46,0.00,,---,0.00,VWS V14.01,2013-01-20 18:22:00,
2013-01-20 12:27:00,57.1,36.0,30.18,South,190,5.0,8.0,45,0.00,,---,0.00,VWS V14.01,2013-01-20 18:27:00,
2013-01-20 12:32:00,57.5,36.9,30.17,SSE,165,5.0,7.0,46,0.00,,---,0.00,VWS V14.01,2013-01-20 18:32:00,
2013-01-20 12:37:00,57.7,36.5,30.17,ESE,112,4.0,7.0,45,0.00,,---,0.00,VWS V14.01,2013-01-20 18:37:00,
2013-01-20 12:42:00,58.1,36.9,30.16,SSE,160,5.0,7.0,45,0.00,,---,0.00,VWS V14.01,2013-01-20 18:42:00,
2013-01-20 12:47:00,58.6,36.8,30.16,South,181,3.0,7.0,44,0.00,,---,0.00,VWS V14.01,2013-01-20 18:47:00,
2013-01-20 12:53:00,59.0,37.1,30.16,SE,136,1.0,8.0,44,0.00,,---,0.00,VWS V14.01,2013-01-20 18:53:00,
2013-01-20 12:58:00,59.3,36.8,30.15,SW,226,4.0,8.0,43,0.00,,---,0.00,VWS V14.01,2013-01-20 18:58:00,
2013-01-20 13:03:00,59.6,37.1,30.15,SSW,212,4.0,6.0,43,0.00,,---,0.00,VWS V14.01,2013-01-20 19:03:00,
2013-01-20 13:08:00,60.3,37.1,30.15,SSW,199,5.0,6.0,42,0.00,,---,0.00,VWS V14.01,2013-01-20 19:08:00,
2013-01-20 13:13:00,60.3,36.5,30.14,SE,142,6.0,7.0,41,0.00,,---,0.00,VWS V14.01,2013-01-20 19:13:00,
2013-01-20 13:18:00,60.5,37.3,30.14,ESE,123,4.0,7.0,42,0.00,,---,0.00,VWS V14.01,2013-01-20 19:18:00,
2013-01-20 13:23:00,61.1,37.2,30.14,South,172,5.0,7.0,41,0.00,,---,0.00,VWS V14.01,2013-01-20 19:23:00,
2013-01-20 13:28:00,61.2,36.7,30.13,SE,139,7.0,8.0,40,0.00,,---,0.00,VWS V14.01,2013-01-20 19:28:00,
2013-01-20 13:34:00,61.6,37.1,30.13,SSE,159,6.0,7.0,40,0.00,,---,0.00,VWS V14.01,2013-01-20 19:34:00,
2013-01-20 13:39:00,61.7,37.2,30.13,SSW,193,4.0,8.0,40,0.00,,---,0.00,VWS V14.01,2013-01-20 19:39:00,
2013-01-20 13:44:00,62.1,36.9,30.12,SSE,162,4.0,8.0,39,0.00,,---,0.00,VWS V14.01,2013-01-20 19:44:00,
2013-01-20 13:49:00,62.2,37.0,30.12,SW,221,2.0,8.0,39,0.00,,---,0.00,VWS V14.01,2013-01-20 19:49:00,
2013-01-20 13:54:00,63.0,37.0,30.12,South,190,4.0,10.0,38,0.00,,---,0.00,VWS V14.01,2013-01-20 19:54:00,
2013-01-20 13:59:00,63.3,37.3,30.11,SE,124,6.0,10.0,38,0.00,,---,0.00,VWS V14.01,2013-01-20 19:59:00,
2013-01-20 14:04:00,63.4,36.7,30.11,SSW,211,6.0,9.0,37,0.00,,---,0.00,VWS V14.01,2013-01-20 20:04:00,
2013-01-20 14:09:00,62.9,36.9,30.11,SE,145,4.0,9.0,38,0.00,,---,0.00,VWS V14.01,2013-01-20 20:09:00,
2013-01-20 14:15:00,63.1,37.1,30.11,SSE,148,2.0,9.0,38,0.00,,---,0.00,VWS V14.01,2013-01-20 20:15:00,
2013-01-20 14:20:00,63.5,37.5,30.11,SSE,166,7.0,10.0,38,0.00,,---,0.00,VWS V14.01,2013-01-20 20:20:00,
2013-01-20 14:25:00,63.8,37.0,30.11,SW,218,2.0,10.0,37,0.00,,---,0.00,VWS V14.01,2013-01-20 20:25:00,
2013-01-20 14:30:00,64.0,35.1,30.11,WSW,240,5.0,11.0,34,0.00,,---,0.00,VWS V14.01,2013-01-20 20:30:00,
2013-01-20 14:35:00,63.7,34.8,30.11,WSW,256,5.0,10.0,34,0.00,,---,0.00,VWS V14.01,2013-01-20 20:35:00,
2013-01-20 14:40:00,64.2,36.7,30.11,SSW,204,4.0,10.0,36,0.00,,---,0.00,VWS V14.01,2013-01-20 20:40:00,
2013-01-20 14:45:00,64.2,35.3,30.10,WSW,237,4.0,10.0,34,0.00,,---,0.00,VWS V14.01,2013-01-20 20:45:00,
2013-01-20 14:50:00,64.3,35.4,30.10,SSW,193,4.0,10.0,34,0.00,,---,0.00,VWS V14.01,2013-01-20 20:50:00,
2013-01-20 14:55:00,64.3,34.6,30.10,SW,215,3.0,12.0,33,0.00,,---,0.00,VWS V14.01,2013-01-20 20:55:00,
2013-01-20 15:01:00,64.4,34.7,30.10,South,181,3.0,12.0,33,0.00,,---,0.00,VWS V14.01,2013-01-20 21:01:00,
2013-01-20 15:06:00,64.9,35.1,30.10,South,170,5.0,9.0,33,0.00,,---,0.00,VWS V14.01,2013-01-20 21:06:00,
2013-01-20 15:11:00,64.6,34.9,30.09,SW,224,3.0,10.0,33,0.00,,---,0.00,VWS V14.01,2013-01-20 21:11:00,
2013-01-20 15:16:00,64.6,34.9,30.09,South,172,5.0,10.0,33,0.00,,---,0.00,VWS V14.01,2013-01-20 21:16:00,
2013-01-20 15:21:00,64.9,35.1,30.09,South,191,6.0,10.0,33,0.00,,---,0.00,VWS V14.01,2013-01-20 21:21:00,
2013-01-20 15:26:00,65.1,34.5,30.09,SSE,155,5.0,10.0,32,0.00,,---,0.00,VWS V14.01,2013-01-20 21:26:00,
2013-01-20 15:32:00,65.3,34.7,30.09,South,172,2.0,7.0,32,0.00,,---,0.00,VWS V14.01,2013-01-20 21:32:00,
2013-01-20 15:37:00,65.2,34.6,30.09,SSW,205,2.0,11.0,32,0.00,,---,0.00,VWS V14.01,2013-01-20 21:37:00,
2013-01-20 15:42:00,65.2,34.6,30.08,SE,139,6.0,11.0,32,0.00,,---,0.00,VWS V14.01,2013-01-20 21:42:00,
2013-01-20 15:47:00,65.3,34.7,30.08,SSW,201,5.0,11.0,32,0.00,,---,0.00,VWS V14.01,2013-01-20 21:47:00,
2013-01-20 15:52:00,65.6,34.2,30.08,South,176,7.0,11.0,31,0.00,,---,0.00,VWS V14.01,2013-01-20 21:52:00,
2013-01-20 15:57:00,65.6,34.2,30.08,South,180,3.0,11.0,31,0.00,,---,0.00,VWS V14.01,2013-01-20 21:57:00,
2013-01-20 16:03:00,65.8,34.3,30.08,SSW,204,5.0,7.0,31,0.00,,---,0.00,VWS V14.01,2013-01-20 22:03:00,
2013-01-20 16:08:00,65.8,34.3,30.08,WSW,247,4.0,8.0,31,0.00,,---,0.00,VWS V14.01,2013-01-20 22:08:00,
2013-01-20 16:13:00,65.6,35.8,30.08,SSE,148,3.0,8.0,33,0.00,,---,0.00,VWS V14.01,2013-01-20 22:13:00,
2013-01-20 16:18:00,65.6,35.8,30.08,SSE,154,7.0,8.0,33,0.00,,---,0.00,VWS V14.01,2013-01-20 22:18:00,
2013-01-20 16:23:00,65.4,35.6,30.08,SE,126,5.0,8.0,33,0.00,,---,0.00,VWS V14.01,2013-01-20 22:23:00,
2013-01-20 16:29:00,65.0,36.0,30.08,East,96,4.0,9.0,34,0.00,,---,0.00,VWS V14.01,2013-01-20 22:29:00,
2013-01-20 16:34:00,64.8,35.8,30.08,SSE,149,5.0,6.0,34,0.00,,---,0.00,VWS V14.01,2013-01-20 22:34:00,
2013-01-20 16:39:00,64.8,35.8,30.08,SE,134,4.0,8.0,34,0.00,,---,0.00,VWS V14.01,2013-01-20 22:39:00,
2013-01-20 16:44:00,65.0,36.0,30.08,ESE,120,5.0,8.0,34,0.00,,---,0.00,VWS V14.01,2013-01-20 22:44:00,
2013-01-20 16:49:00,65.0,35.2,30.08,South,172,6.0,8.0,33,0.00,,---,0.00,VWS V14.01,2013-01-20 22:49:00,
2013-01-20 16:54:00,64.8,35.8,30.08,SE,134,4.0,8.0,34,0.00,,---,0.00,VWS V14.01,2013-01-20 22:54:00,
2013-01-20 16:59:00,64.6,35.6,30.08,SSE,153,4.0,8.0,34,0.00,,---,0.00,VWS V14.01,2013-01-20 22:59:00,
2013-01-20 17:04:00,64.3,36.1,30.08,SSE,152,3.0,6.0,35,0.00,,---,0.00,VWS V14.01,2013-01-20 23:04:00,
2013-01-20 17:09:00,64.0,35.8,30.08,SE,143,3.0,6.0,35,0.00,,---,0.00,VWS V14.01,2013-01-20 23:09:00,
2013-01-20 17:14:00,63.7,35.6,30.08,SSE,153,3.0,6.0,35,0.00,,---,0.00,VWS V14.01,2013-01-20 23:14:00,
2013-01-20 17:19:00,63.3,35.2,30.08,SE,145,4.0,6.0,35,0.00,,---,0.00,VWS V14.01,2013-01-20 23:19:00,
2013-01-20 17:24:00,63.0,35.7,30.08,SSE,158,3.0,6.0,36,0.00,,---,0.00,VWS V14.01,2013-01-20 23:24:00,
2013-01-20 17:30:00,62.5,35.2,30.08,SE,124,3.0,6.0,36,0.00,,---,0.00,VWS V14.01,2013-01-20 23:30:00,
2013-01-20 17:35:00,62.2,34.9,30.08,SE,132,2.0,4.0,36,0.00,,---,0.00,VWS V14.01,2013-01-20 23:35:00,
2013-01-20 17:40:00,61.7,35.2,30.08,SE,124,3.0,4.0,37,0.00,,---,0.00,VWS V14.01,2013-01-20 23:40:00,
2013-01-20 17:45:00,61.1,35.3,30.08,SE,124,2.0,4.0,38,0.00,,---,0.00,VWS V14.01,2013-01-20 23:45:00,
2013-01-20 17:50:00,60.5,35.4,30.09,ESE,105,1.0,4.0,39,0.00,,---,0.00,VWS V14.01,2013-01-20 23:50:00,
2013-01-20 17:55:00,59.5,35.2,30.09,ESE,120,2.0,4.0,40,0.00,,---,0.00,VWS V14.01,2013-01-20 23:55:00,
2013-01-20 18:00:00,58.2,35.2,30.09,SE,124,1.0,4.0,42,0.00,,---,0.00,VWS V14.01,2013-01-21 00:00:00,
2013-01-20 18:05:00,57.5,35.2,30.09,ESE,115,1.0,2.0,43,0.00,,---,0.00,VWS V14.01,2013-01-21 00:05:00,
2013-01-20 18:11:00,57.0,34.8,30.09,ESE,107,2.0,2.0,43,0.00,,---,0.00,VWS V14.01,2013-01-21 00:11:00,
2013-01-20 18:16:00,56.7,34.5,30.09,ESE,103,2.0,2.0,43,0.00,,---,0.00,VWS V14.01,2013-01-21 00:16:00,
2013-01-20 18:21:00,56.6,35.0,30.09,ESE,110,1.0,3.0,44,0.00,,---,0.00,VWS V14.01,2013-01-21 00:21:00,
2013-01-20 18:26:00,56.2,34.6,30.09,SE,124,1.0,3.0,44,0.00,,---,0.00,VWS V14.01,2013-01-21 00:26:00,
2013-01-20 18:31:00,55.8,34.8,30.10,ESE,110,1.0,2.0,45,0.00,,---,0.00,VWS V14.01,2013-01-21 00:31:00,
2013-01-20 18:36:00,55.7,34.7,30.10,ESE,104,1.0,2.0,45,0.00,,---,0.00,VWS V14.01,2013-01-21 00:36:00,
2013-01-20 18:41:00,55.7,35.3,30.10,ESE,104,2.0,3.0,46,0.00,,---,0.00,VWS V14.01,2013-01-21 00:41:00,
2013-01-20 18:46:00,55.7,35.3,30.10,ESE,103,1.0,3.0,46,0.00,,---,0.00,VWS V14.01,2013-01-21 00:46:00,
2013-01-20 18:52:00,55.6,35.2,30.11,ESE,113,0.0,3.0,46,0.00,,---,0.00,VWS V14.01,2013-01-21 00:52:00,
2013-01-20 18:57:00,55.4,35.0,30.11,ESE,113,0.0,3.0,46,0.00,,---,0.00,VWS V14.01,2013-01-21 00:57:00,
2013-01-20 19:02:00,54.8,35.0,30.11,ESE,113,1.0,1.0,47,0.00,,---,0.00,VWS V14.01,2013-01-21 01:02:00,
2013-01-20 19:07:00,53.2,34.5,30.12,NW,322,2.0,3.0,49,0.00,,---,0.00,VWS V14.01,2013-01-21 01:07:00,
2013-01-20 19:12:00,50.5,34.5,30.11,NW,322,1.0,3.0,54,0.00,,---,0.00,VWS V14.01,2013-01-21 01:12:00,
2013-01-20 19:17:00,50.5,34.5,30.11,ENE,75,1.0,3.0,54,0.00,,---,0.00,VWS V14.01,2013-01-21 01:17:00,
2013-01-20 19:22:00,50.5,34.5,30.12,NE,45,1.0,3.0,54,0.00,,---,0.00,VWS V14.01,2013-01-21 01:22:00,
2013-01-20 19:27:00,50.1,34.6,30.12,SE,136,2.0,3.0,55,0.00,,---,0.00,VWS V14.01,2013-01-21 01:27:00,
2013-01-20 19:32:00,49.8,34.3,30.11,SE,143,2.0,2.0,55,0.00,,---,0.00,VWS V14.01,2013-01-21 01:32:00,
2013-01-20 19:38:00,49.8,34.8,30.11,ESE,113,1.0,3.0,56,0.00,,---,0.00,VWS V14.01,2013-01-21 01:38:00,
2013-01-20 19:43:00,50.7,35.1,30.11,East,90,0.0,3.0,55,0.00,,---,0.00,VWS V14.01,2013-01-21 01:43:00,
2013-01-20 19:48:00,50.4,34.4,30.12,NNE,21,1.0,3.0,54,0.00,,---,0.00,VWS V14.01,2013-01-21 01:48:00,
2013-01-20 19:53:00,49.1,34.5,30.12,North,3,2.0,3.0,57,0.00,,---,0.00,VWS V14.01,2013-01-21 01:53:00,
2013-01-20 19:58:00,48.5,34.4,30.12,North,6,1.0,3.0,58,0.00,,---,0.00,VWS V14.01,2013-01-21 01:58:00,
2013-01-20 20:03:00,47.6,34.0,30.12,North,6,1.0,1.0,59,0.00,,---,0.00,VWS V14.01,2013-01-21 02:03:00,
2013-01-20 20:08:00,46.9,34.2,30.12,NE,37,0.0,1.0,61,0.00,,---,0.00,VWS V14.01,2013-01-21 02:08:00,
2013-01-20 20:13:00,46.6,33.9,30.12,NE,37,0.0,1.0,61,0.00,,---,0.00,VWS V14.01,2013-01-21 02:13:00,
2013-01-20 20:19:00,46.0,33.7,30.12,NE,37,1.0,2.0,62,0.00,,---,0.00,VWS V14.01,2013-01-21 02:19:00,
2013-01-20 20:24:00,45.5,34.0,30.12,ENE,60,2.0,2.0,64,0.00,,---,0.00,VWS V14.01,2013-01-21 02:24:00,
2013-01-20 20:29:00,45.3,34.2,30.12,ENE,63,1.0,3.0,65,0.00,,---,0.00,VWS V14.01,2013-01-21 02:29:00,
2013-01-20 20:34:00,44.9,34.2,30.12,ENE,62,2.0,2.0,66,0.00,,---,0.00,VWS V14.01,2013-01-21 02:34:00,
2013-01-20 20:39:00,44.5,34.2,30.12,NE,40,5.0,5.0,67,0.00,,---,0.00,VWS V14.01,2013-01-21 02:39:00,
2013-01-20 20:44:00,44.5,34.2,30.13,NE,50,2.0,5.0,67,0.00,,---,0.00,VWS V14.01,2013-01-21 02:44:00,
2013-01-20 20:49:00,44.5,34.2,30.13,ENE,68,2.0,5.0,67,0.00,,---,0.00,VWS V14.01,2013-01-21 02:49:00,
2013-01-20 20:54:00,44.9,34.2,30.13,ENE,68,1.0,5.0,66,0.00,,---,0.00,VWS V14.01,2013-01-21 02:54:00,
2013-01-20 20:59:00,44.8,34.5,30.13,NNE,29,4.0,5.0,67,0.00,,---,0.00,VWS V14.01,2013-01-21 02:59:00,
2013-01-20 21:04:00,44.7,34.4,30.13,NE,38,1.0,4.0,67,0.00,,---,0.00,VWS V14.01,2013-01-21 03:04:00,
2013-01-20 21:10:00,44.6,34.3,30.13,NNE,20,4.0,4.0,67,0.00,,---,0.00,VWS V14.01,2013-01-21 03:10:00,
2013-01-20 21:15:00,44.9,35.0,30.14,NE,35,4.0,5.0,68,0.00,,---,0.00,VWS V14.01,2013-01-21 03:15:00,
2013-01-20 21:20:00,45.4,35.1,30.14,NE,45,4.0,5.0,67,0.00,,---,0.00,VWS V14.01,2013-01-21 03:20:00,
2013-01-20 21:25:00,45.1,34.4,30.14,NNE,19,3.0,5.0,66,0.00,,---,0.00,VWS V14.01,2013-01-21 03:25:00,
2013-01-20 21:30:00,44.2,34.0,30.14,North,6,2.0,5.0,67,0.00,,---,0.00,VWS V14.01,2013-01-21 03:30:00,
2013-01-20 21:35:00,43.5,33.7,30.15,North,4,3.0,4.0,68,0.00,,---,0.00,VWS V14.01,2013-01-21 03:35:00,
2013-01-20 21:40:00,42.8,33.3,30.15,North,6,3.0,5.0,69,0.00,,---,0.00,VWS V14.01,2013-01-21 03:40:00,
2013-01-20 21:45:00,42.7,33.6,30.15,North,9,3.0,5.0,70,0.00,,---,0.00,VWS V14.01,2013-01-21 03:45:00,
2013-01-20 21:50:00,42.4,33.3,30.15,North,352,4.0,5.0,70,0.00,,---,0.00,VWS V14.01,2013-01-21 03:50:00,
2013-01-20 21:56:00,41.9,33.2,30.15,NNW,346,3.0,5.0,71,0.00,,---,0.00,VWS V14.01,2013-01-21 03:56:00,
2013-01-20 22:01:00,41.6,32.9,30.16,North,359,3.0,4.0,71,0.00,,---,0.00,VWS V14.01,2013-01-21 04:01:00,
2013-01-20 22:06:00,41.3,33.3,30.16,North,11,3.0,5.0,73,0.00,,---,0.00,VWS V14.01,2013-01-21 04:06:00,
2013-01-20 22:11:00,41.2,33.2,30.17,North,357,2.0,5.0,73,0.00,,---,0.00,VWS V14.01,2013-01-21 04:11:00,
2013-01-20 22:16:00,41.1,33.1,30.17,North,359,3.0,5.0,73,0.00,,---,0.00,VWS V14.01,2013-01-21 04:16:00,
2013-01-20 22:21:00,41.0,33.0,30.17,North,357,3.0,5.0,73,0.00,,---,0.00,VWS V14.01,2013-01-21 04:21:00,
2013-01-20 22:26:00,40.6,32.6,30.17,NNW,347,4.0,5.0,73,0.00,,---,0.00,VWS V14.01,2013-01-21 04:26:00,
2013-01-20 22:32:00,40.1,32.5,30.18,NNW,344,4.0,4.0,74,0.00,,---,0.00,VWS V14.01,2013-01-21 04:32:00,
2013-01-20 22:37:00,39.9,32.6,30.18,North,352,3.0,5.0,75,0.00,,---,0.00,VWS V14.01,2013-01-21 04:37:00,
2013-01-20 22:42:00,39.8,32.9,30.18,North,358,5.0,6.0,76,0.00,,---,0.00,VWS V14.01,2013-01-21 04:42:00,
2013-01-20 22:47:00,40.1,33.2,30.18,North,355,4.0,6.0,76,0.00,,---,0.00,VWS V14.01,2013-01-21 04:47:00,
2013-01-20 22:52:00,40.0,32.7,30.19,North,354,4.0,6.0,75,0.00,,---,0.00,VWS V14.01,2013-01-21 04:52:00,
2013-01-20 22:57:00,40.0,32.7,30.19,North,354,3.0,6.0,75,0.00,,---,0.00,VWS V14.01,2013-01-21 04:57:00,
2013-01-20 23:03:00,40.5,33.2,30.19,NNW,344,4.0,6.0,75,0.00,,---,0.00,VWS V14.01,2013-01-21 05:03:00,
2013-01-20 23:04:00,40.6,33.3,30.19,North,355,5.0,6.0,75,0.00,,---,0.00,VWS V14.01,2013-01-21 05:04:00,
2013-01-20 23:05:00,40.7,33.4,30.19,North,11,7.0,7.0,75,0.00,,---,0.00,VWS V14.01,2013-01-21 05:05:00,
2013-01-20 23:10:00,41.5,33.8,30.19,NNW,336,4.0,7.0,74,0.00,,---,0.00,VWS V14.01,2013-01-21 05:10:00,
2013-01-20 23:15:00,42.5,34.8,30.20,North,356,7.0,8.0,74,0.00,,---,0.00,VWS V14.01,2013-01-21 05:15:00,
2013-01-20 23:20:00,44.1,35.3,30.20,NNE,18,9.0,13.0,71,0.00,,---,0.00,VWS V14.01,2013-01-21 05:20:00,
2013-01-20 23:25:00,45.1,35.5,30.20,NNE,13,10.0,13.0,69,0.00,,---,0.00,VWS V14.01,2013-01-21 05:25:00,
2013-01-20 23:30:00,45.5,35.2,30.20,NNE,14,13.0,13.0,67,0.00,,---,0.00,VWS V14.01,2013-01-21 05:30:00,
2013-01-20 23:35:00,46.0,35.3,30.20,NNE,18,11.0,14.0,66,0.00,,---,0.00,VWS V14.01,2013-01-21 05:35:00,
2013-01-20 23:40:00,46.4,35.3,30.20,NNE,18,12.0,15.0,65,0.00,,---,0.00,VWS V14.01,2013-01-21 05:40:00,
2013-01-20 23:45:00,46.4,34.9,30.21,NNE,14,9.0,15.0,64,0.00,,---,0.00,VWS V14.01,2013-01-21 05:45:00,
2013-01-20 23:51:00,45.8,34.7,30.21,North,355,13.0,15.0,65,0.00,,---,0.00,VWS V14.01,2013-01-21 05:51:00,
2013-01-20 23:56:00,45.4,34.3,30.21,NNW,344,10.0,17.0,65,0.00,,---,0.00,VWS V14.01,2013-01-21 05:56:00,